WA2GUG Weather Reports


Display with metric or nautical units.
time (UTC)temp
F
wind
direction
speed
MPH
gust
MPH
rain 1hr
in
rain 24hr
in
rain mn
in
humidity
%
barometer
mb
20260902061200 0 228 0.0 4.0 0.00 0.00 0.00 99 1012.2
20260902060700 0 140 0.0 4.0 0.00 0.00 0.00 99 1013.0
20260902060200 0 241 0.0 0.0 0.00 0.00 0.00 99 1012.2
20260902055700 0 263 0.0 0.0 0.00 0.00 0.00 99 1012.2
20260902055200 0 124 0.0 0.0 0.00 0.00 0.00 99 1012.2
20260902054700 0 111 0.0 0.0 0.00 0.00 0.00 99 1013.0
20260902054200 0 254 0.0 0.0 0.00 0.00 0.00 99 1012.2
20260902053700 0 145 0.0 0.0 0.00 0.00 0.00 99 1013.0
20260902053200 0 127 0.0 3.0 0.00 0.00 0.00 99 1012.2
20260902052700 0 157 0.0 3.0 0.00 0.00 0.00 99 1013.0
20260902052200 0 131 0.0 1.0 0.00 0.00 0.00 99 1012.2
20260902051700 0 206 0.0 1.0 0.00 0.00 0.00 99 1013.0
20260902051200 0 45 0.0 2.0 0.00 0.00 0.00 99 1012.2
20260902050700 0 170 0.0 2.0 0.00 0.00 0.00 99 1013.0
20260902050200 0 152 0.0 0.0 0.00 0.00 0.00 99 1012.2
20260902045700 0 166 0.0 2.0 0.00 0.00 0.00 99 1012.2
20260902045200 0 81 0.0 2.0 0.00 0.00 0.00 99 1012.1
20260902044700 0 144 0.0 2.0 0.00 0.00 0.00 99 1012.1
20260902044200 0 117 0.0 2.0 0.00 0.00 0.00 99 1012.1
20260902043700 0 179 0.0 2.0 0.00 0.00 0.00 99 1012.1
20260902043200 0 172 0.0 1.0 0.00 0.00 0.00 99 1012.1
20260902042700 0 262 0.0 1.0 0.00 0.00 0.00 99 1012.0
20260902042200 0 223 0.0 1.0 0.00 0.00 0.00 99 1012.0
20260902041700 0 238 0.0 0.0 0.00 0.00 0.00 99 1012.0
20260902041200 0 268 0.0 0.0 0.00 0.00 0.00 99 1012.0
20260902040700 0 206 0.0 0.0 0.00 0.00 0.00 99 1012.0
20260902040200 0 198 0.0 0.0 0.00 0.00 0.00 99 1012.0
20260902035700 0 235 0.0 0.0 0.00 0.00 0.00 99 1012.0
20260902035200 0 267 0.0 0.0 0.00 0.00 0.00 99 1012.0
20260902034700 0 192 0.0 0.0 0.00 0.00 0.00 99 1012.0
20260902034200 0 178 0.0 0.0 0.00 0.00 0.00 99 1012.0
20260902033700 0 194 0.0 0.0 0.00 0.00 0.00 99 1012.0
20260902033200 0 229 0.0 0.0 0.00 0.00 0.00 99 1012.0
20260902032700 0 260 0.0 0.0 0.00 0.00 0.00 99 1012.0
20260902032200 0 175 0.0 0.0 0.00 0.00 0.00 99 1012.0
20260902031700 0 221 0.0 0.0 0.00 0.00 0.00 99 1012.0
20260902031200 0 205 0.0 0.0 0.00 0.00 0.00 99 1012.0
20260902030700 0 270 0.0 0.0 0.00 0.00 0.00 99 1012.0
20260902030200 0 273 0.0 0.0 0.00 0.00 0.00 99 1012.0
20260902025700 0 285 0.0 0.0 0.00 0.00 0.00 99 1012.0
20260902025200 0 137 0.0 0.0 0.00 0.00 0.00 99 1012.0
20260902024700 0 135 0.0 0.0 0.00 0.00 0.00 99 1012.0
20260902024200 0 135 0.0 0.0 0.00 0.00 0.00 99 1012.0
20260902023700 0 127 0.0 0.0 0.00 0.00 0.00 99 1012.0
20260902023200 0 270 0.0 0.0 0.00 0.00 0.00 99 1012.0
20260902022700 0 273 0.0 0.0 0.00 0.00 0.00 99 1012.0
20260902022200 0 267 0.0 0.0 0.00 0.00 0.00 99 1012.0
20260902021700 0 293 0.0 0.0 0.00 0.00 0.00 99 1012.0
20260902021200 0 285 0.0 0.0 0.00 0.00 0.00 99 1012.0
20260902020700 0 205 0.0 0.0 0.00 0.00 0.00 99 1012.0
20260902020200 0 250 0.0 0.0 0.00 0.00 0.00 99 1012.0
20260902015700 0 270 0.0 0.0 0.00 0.00 0.00 99 1012.0
20260902015200 0 232 0.0 0.0 0.00 0.00 0.00 99 1012.0
20260902014700 0 181 0.0 0.0 0.00 0.00 0.00 99 1012.0
20260902014200 0 178 0.0 0.0 0.00 0.00 0.00 99 1012.0
20260902013700 0 195 0.0 0.0 0.00 0.00 0.00 99 1012.0
20260902013200 0 270 0.0 0.0 0.00 0.00 0.00 99 1012.0
20260902012700 0 203 0.0 0.0 0.00 0.00 0.00 99 1012.0
20260902012200 0 137 0.0 0.0 0.00 0.00 0.00 99 1012.0
20260902011700 0 178 0.0 0.0 0.00 0.00 0.00 99 1011.2
20260902011200 0 263 0.0 0.0 0.00 0.00 0.00 99 1012.0
20260902010700 0 295 0.0 0.0 0.00 0.00 0.00 99 1011.2
20260902010200 0 286 0.0 0.0 0.00 0.00 0.00 99 1012.0
20260902005700 0 253 0.0 0.0 0.00 0.00 0.00 99 1011.2
20260902005200 0 266 0.0 0.0 0.00 0.00 0.00 99 1012.0
20260902004700 0 258 0.0 0.0 0.00 0.00 0.00 99 1011.2
20260902004200 0 185 0.0 0.0 0.00 0.00 0.00 99 1011.2
20260902003700 0 260 0.0 0.0 0.00 0.00 0.00 99 1011.1
20260902003200 0 234 0.0 1.0 0.00 0.00 0.00 99 1011.0
20260902002700 0 231 0.0 1.0 0.00 0.00 0.00 99 1011.0
20260902002200 0 223 0.0 0.0 0.00 0.00 0.00 99 1011.0
20260902001700 0 252 0.0 0.0 0.00 0.00 0.00 99 1011.0
20260902001200 0 255 0.0 0.0 0.00 0.00 0.00 99 1011.0
20260902000700 0 274 0.0 0.0 0.00 0.00 0.00 99 1011.0
20260902000200 0 166 0.0 0.0 0.00 0.00 0.00 99 1011.0
20260901235700 0 219 0.0 0.0 0.00 0.00 0.00 99 1010.2
20260901235200 0 222 0.0 0.0 0.00 0.00 0.00 99 1011.0
20260901234700 0 247 0.0 0.0 0.00 0.00 0.00 99 1011.0
20260901234200 0 235 0.0 0.0 0.00 0.00 0.00 99 1011.0
20260901233700 0 225 0.0 0.0 0.00 0.00 0.00 99 1011.0
20260901233200 0 225 0.0 0.0 0.00 0.00 0.00 99 1011.0
20260901232700 0 244 0.0 0.0 0.00 0.00 0.00 99 1011.0
20260901232200 0 240 0.0 0.0 0.00 0.00 0.00 99 1011.0
20260901231700 0 225 0.0 0.0 0.00 0.00 0.00 99 1010.2
20260901231200 0 225 0.0 0.0 0.00 0.00 0.00 99 1011.0
20260901230700 0 225 0.0 0.0 0.00 0.00 0.00 99 1011.0
20260901230200 0 225 0.0 0.0 0.00 0.00 0.00 99 1011.0
20260901225700 0 225 0.0 0.0 0.00 0.00 0.00 99 1011.0
20260901225200 0 225 0.0 0.0 0.00 0.00 0.00 99 1011.0
20260901224700 0 225 0.0 0.0 0.00 0.00 0.00 99 1011.0
20260901224200 0 225 0.0 0.0 0.00 0.00 0.00 99 1011.0
20260901223700 0 225 0.0 0.0 0.00 0.00 0.00 99 1011.0
20260901223200 0 263 0.0 0.0 0.00 0.00 0.00 99 1011.0
20260901222700 0 296 0.0 0.0 0.00 0.00 0.00 99 1011.0
20260901222200 0 298 0.0 0.0 0.00 0.00 0.00 99 1011.0
20260901221700 0 292 0.0 0.0 0.00 0.00 0.00 99 1011.0
20260901221200 0 292 0.0 0.0 0.00 0.00 0.00 99 1011.0
20260901220700 0 292 0.0 0.0 0.00 0.00 0.00 99 1011.0
20260901220200 0 291 0.0 0.0 0.00 0.00 0.00 99 1011.0
20260901215700 0 289 0.0 0.0 0.00 0.00 0.00 99 1011.0
20260901215200 0 297 0.0 0.0 0.00 0.00 0.00 99 1011.0
20260901214700 0 314 0.0 0.0 0.00 0.00 0.00 99 1011.0
20260901214159 0 274 0.0 0.0 0.00 0.00 0.00 99 1011.0
20260901213700 0 270 0.0 0.0 0.00 0.00 0.00 99 1011.0
20260901213200 0 288 0.0 0.0 0.00 0.00 0.00 99 1011.0
20260901212700 0 292 0.0 0.0 0.00 0.00 0.00 99 1011.0
20260901212159 0 256 0.0 0.0 0.00 0.00 0.00 99 1011.0
20260901211700 0 247 0.0 0.0 0.00 0.00 0.00 99 1011.0
20260901211200 0 247 0.0 0.0 0.00 0.00 0.00 99 1011.0
20260901210659 0 141 0.0 0.0 0.00 0.00 0.00 99 1011.0
20260901210159 0 135 0.0 0.0 0.00 0.00 0.00 99 1011.0
20260901205659 0 135 0.0 0.0 0.00 0.00 0.00 99 1010.2
20260901205159 0 114 0.0 0.0 0.00 0.00 0.00 99 1011.0
20260901204659 0 112 0.0 0.0 0.00 0.00 0.00 99 1010.2
20260901204159 0 315 0.0 0.0 0.00 0.00 0.00 99 1010.2
20260901203659 0 315 0.0 0.0 0.00 0.00 0.00 99 1010.2
20260901203159 0 315 0.0 0.0 0.00 0.00 0.00 99 1011.0
20260901202659 0 315 0.0 0.0 0.00 0.00 0.00 99 1010.2
20260901202159 0 325 0.0 0.0 0.00 0.00 0.00 99 1011.0
20260901201700 0 337 0.0 0.0 0.00 0.00 0.00 99 1010.2
20260901201159 0 337 0.0 0.0 0.00 0.00 0.00 99 1011.0
20260901200659 0 337 0.0 0.0 0.00 0.00 0.00 99 1010.2
20260901200159 0 354 0.0 0.0 0.00 0.00 0.00 99 1010.2
20260901195659 0 59 0.0 0.0 0.00 0.00 0.00 99 1010.2
20260901195159 0 84 0.0 0.0 0.00 0.00 0.00 99 1011.0
20260901194659 0 7 0.0 0.0 0.00 0.00 0.00 99 1010.2
20260901194159 0 34 0.0 0.0 0.00 0.00 0.00 99 1010.2
20260901193659 0 339 0.0 0.0 0.00 0.00 0.00 99 1011.0
20260901193159 0 249 0.0 0.0 0.00 0.00 0.00 99 1010.2
20260901192659 0 205 0.0 0.0 0.00 0.00 0.00 99 1010.1
20260901192159 0 142 0.0 0.0 0.00 0.00 0.00 99 1010.1
20260901191659 0 24 0.0 0.0 0.00 0.00 0.00 99 1010.1
20260901191159 0 136 0.0 0.0 0.00 0.00 0.00 99 1010.0
20260901190659 0 148 0.0 0.0 0.00 0.00 0.00 99 1010.0
20260901190159 0 106 0.0 0.0 0.00 0.00 0.00 99 1010.0
20260901185659 0 172 0.0 0.0 0.00 0.00 0.00 99 1010.0
20260901185159 0 180 0.0 0.0 0.00 0.00 0.00 99 1010.0
20260901184659 0 150 0.0 0.0 0.00 0.00 0.00 99 1010.0
20260901184159 0 86 0.0 0.0 0.00 0.00 0.00 99 1010.0
20260901183659 0 114 0.0 0.0 0.00 0.00 0.00 99 1010.0
20260901183159 0 145 0.0 0.0 0.00 0.00 0.00 99 1010.0
20260901182659 0 112 0.0 0.0 0.00 0.00 0.00 99 1010.0
20260901182159 0 120 0.0 0.0 0.00 0.00 0.00 99 1010.0
20260901181659 0 115 0.0 0.0 0.00 0.00 0.00 99 1010.0
20260901181159 0 165 0.0 0.0 0.00 0.00 0.00 99 1010.0
20260901180659 0 144 0.0 2.0 0.00 0.00 0.00 99 1010.0
20260901180159 0 167 0.0 2.0 0.00 0.00 0.00 99 1010.0
20260901175659 0 173 0.0 0.0 0.00 0.00 0.00 99 1010.0
20260901175159 0 165 0.0 0.0 0.00 0.00 0.00 99 1010.0
20260901174659 0 147 0.0 0.0 0.00 0.00 0.00 99 1010.0
20260901174159 0 177 0.0 0.0 0.00 0.00 0.00 99 1010.0
20260901173659 0 177 0.0 0.0 0.00 0.00 0.00 99 1010.0
20260901173159 0 135 0.0 2.0 0.00 0.00 0.00 99 1010.0
20260901172659 0 135 0.0 3.0 0.00 0.00 0.00 99 1010.0
20260901172159 0 146 1.0 3.0 0.00 0.00 0.00 99 1010.0
20260901171659 0 125 0.0 3.0 0.00 0.00 0.00 99 1010.0
20260901171159 0 202 0.0 3.0 0.00 0.00 0.00 99 1010.0
20260901170659 0 184 0.0 3.0 0.00 0.00 0.00 99 1010.0
20260901170159 0 153 1.0 3.0 0.00 0.00 0.00 99 1010.0
20260901165659 0 163 0.0 4.0 0.00 0.00 0.00 99 1010.0
20260901165159 0 139 1.0 4.0 0.00 0.00 0.00 99 1010.0
20260901164659 0 165 0.0 2.0 0.00 0.00 0.00 99 1010.0
20260901164159 0 162 0.0 0.0 0.00 0.00 0.00 99 1010.0
20260901163659 0 138 0.0 0.0 0.00 0.00 0.00 99 1010.0
20260901163159 0 272 0.0 0.0 0.00 0.00 0.00 99 1010.0
20260901162659 0 276 0.0 0.0 0.00 0.00 0.00 99 1010.0
20260901162159 0 139 0.0 0.0 0.00 0.00 0.00 99 1010.0
20260901161659 0 134 0.0 0.0 0.00 0.00 0.00 99 1010.0
20260901161159 0 135 0.0 2.0 0.00 0.00 0.00 99 1010.0
20260901160659 0 140 0.0 2.0 0.00 0.00 0.00 99 1010.0
20260901160159 0 118 0.0 0.0 0.00 0.00 0.00 99 1010.0
20260901155659 0 132 0.0 0.0 0.00 0.00 0.00 99 1010.0
20260901155159 0 181 0.0 0.0 0.00 0.00 0.00 99 1010.0
20260901154659 0 154 0.0 0.0 0.00 0.00 0.00 99 1010.0
20260901154159 0 105 0.0 0.0 0.00 0.00 0.00 99 1010.1
20260901153659 0 123 0.0 0.0 0.00 0.00 0.00 99 1010.0
20260901153159 0 239 0.0 0.0 0.00 0.00 0.00 99 1010.0
20260901152659 0 281 0.0 0.0 0.00 0.00 0.00 99 1010.0
20260901152159 0 182 0.0 0.0 0.00 0.00 0.00 99 1010.0
20260901151659 0 142 0.0 0.0 0.00 0.00 0.00 99 1010.2
20260901151159 0 330 0.0 0.0 0.00 0.00 0.00 99 1010.0
20260901150659 0 301 0.0 0.0 0.00 0.00 0.00 99 1010.1
20260901150159 0 192 0.0 0.0 0.00 0.00 0.00 99 1010.1
20260901145659 0 127 0.0 0.0 0.00 0.00 0.00 99 1010.0
20260901145159 0 317 0.0 0.0 0.00 0.00 0.00 99 1010.0
20260901144659 0 324 0.0 0.0 0.00 0.00 0.00 99 1010.1
20260901144159 0 279 0.0 0.0 0.00 0.00 0.00 99 1010.1
20260901143659 0 269 0.0 0.0 0.00 0.00 0.00 99 1010.2
20260901143159 0 229 0.0 0.0 0.00 0.00 0.00 99 1010.2
20260901142659 0 141 0.0 0.0 0.00 0.00 0.00 99 1010.2
20260901142159 0 252 0.0 0.0 0.00 0.00 0.00 99 1010.2
20260901141659 0 261 0.0 0.0 0.00 0.00 0.00 99 1010.1
20260901141159 0 204 0.0 0.0 0.00 0.00 0.00 99 1010.0
20260901140659 0 287 0.0 0.0 0.00 0.00 0.00 99 1010.0
20260901140159 0 142 0.0 0.0 0.00 0.00 0.00 99 1010.2
20260901135659 0 177 0.0 0.0 0.00 0.00 0.00 99 1011.0
20260901135159 0 133 0.0 0.0 0.00 0.00 0.00 99 1011.0
20260901134659 0 224 0.0 0.0 0.00 0.00 0.00 99 1010.2
20260901134159 0 237 0.0 0.0 0.00 0.00 0.00 99 1010.2
20260901133659 0 345 0.0 1.0 0.00 0.00 0.00 99 1010.2
20260901133159 0 284 0.0 1.0 0.00 0.00 0.00 99 1010.2
20260901132659 0 338 0.0 0.0 0.00 0.00 0.00 99 1011.0
20260901132159 0 288 0.0 0.0 0.00 0.00 0.00 99 1010.2
20260901131659 0 233 0.0 0.0 0.00 0.00 0.00 99 1010.2
20260901131159 0 228 0.0 0.0 0.00 0.00 0.00 99 1010.2
20260901130659 0 290 0.0 0.0 0.00 0.00 0.00 99 1011.0
20260901130159 0 20 0.0 0.0 0.00 0.00 0.00 99 1011.0
20260901125659 0 50 0.0 0.0 0.00 0.00 0.00 99 1011.0
20260901125159 0 312 0.0 0.0 0.00 0.00 0.00 99 1011.0
20260901124659 0 319 0.0 0.0 0.00 0.00 0.00 99 1011.0
20260901124159 0 31 0.0 0.0 0.00 0.00 0.00 99 1011.0
20260901123659 0 254 0.0 0.0 0.00 0.00 0.00 99 1011.0
20260901123159 0 79 0.0 0.0 0.00 0.00 0.00 99 1011.0
20260901122659 0 96 0.0 0.0 0.00 0.00 0.00 99 1011.0
20260901122159 0 13 0.0 0.0 0.00 0.00 0.00 99 1010.2
20260901121659 0 155 0.0 0.0 0.00 0.00 0.00 99 1011.0
20260901121159 0 312 0.0 0.0 0.00 0.00 0.00 99 1011.0
20260901120659 0 135 0.0 0.0 0.00 0.00 0.00 99 1011.0
20260901120159 0 127 0.0 0.0 0.00 0.00 0.00 99 1011.0
20260901115659 0 59 0.0 0.0 0.00 0.00 0.00 99 1011.0
20260901115159 0 131 0.0 0.0 0.00 0.00 0.00 99 1010.2
20260901114659 0 133 0.0 0.0 0.00 0.00 0.00 99 1011.0
20260901114159 0 315 0.0 0.0 0.00 0.00 0.00 99 1011.0
20260901113659 0 2 0.0 0.0 0.00 0.00 0.00 99 1011.0
20260901113159 0 54 0.0 0.0 0.00 0.00 0.00 99 1011.0
20260901112659 0 270 0.0 0.0 0.00 0.00 0.00 99 1010.2
20260901112159 0 256 0.0 0.0 0.00 0.00 0.00 99 1010.2
20260901111659 0 304 0.0 0.0 0.00 0.00 0.00 99 1010.2
20260901111159 0 322 0.0 0.0 0.00 0.00 0.00 99 1010.2
20260901110659 0 267 0.0 0.0 0.00 0.00 0.00 99 1010.2
20260901110159 0 235 0.0 0.0 0.00 0.00 0.00 99 1011.0
20260901105659 0 225 0.0 0.0 0.00 0.00 0.00 99 1011.0
20260901105159 0 45 0.0 0.0 0.00 0.00 0.00 99 1011.0
20260901104659 0 247 0.0 0.0 0.00 0.00 0.00 99 1010.2
20260901104159 0 260 0.0 0.0 0.00 0.00 0.00 99 1010.2
20260901103659 0 103 0.0 0.0 0.00 0.00 0.00 99 1011.0
20260901103159 0 15 0.0 0.0 0.00 0.00 0.00 99 1011.0
20260901102659 0 320 0.0 0.0 0.00 0.00 0.00 99 1010.1
20260901102159 0 333 0.0 0.0 0.00 0.00 0.00 99 1010.1
20260901101659 0 315 0.0 0.0 0.00 0.00 0.00 99 1010.0
20260901101159 0 294 0.0 0.0 0.00 0.00 0.00 99 1010.0
20260901100659 0 290 0.0 0.0 0.00 0.00 0.00 99 1010.0
20260901100159 0 302 0.0 0.0 0.00 0.00 0.00 99 1010.0
20260901095659 0 180 0.0 0.0 0.00 0.00 0.00 99 1010.0
20260901095159 0 72 0.0 0.0 0.00 0.00 0.00 99 1010.0
20260901094659 0 273 0.0 0.0 0.00 0.00 0.00 99 1010.0
20260901094159 66 270 0.0 0.0 0.00 0.00 0.00 99 1010.0
20260901093659 66 306 0.0 0.0 0.00 0.00 0.00 99 1010.0
20260901093159 66 180 0.0 0.0 0.00 0.00 0.00 99 1010.0
20260901092659 66 180 0.0 0.0 0.00 0.00 0.00 99 1010.1
20260901092159 66 180 0.0 0.0 0.00 0.00 0.00 99 1010.2
20260901091659 66 180 0.0 0.0 0.00 0.00 0.00 99 1011.0
20260901091159 66 180 0.0 0.0 0.00 0.00 0.00 99 1010.2
20260901090659 66 151 0.0 0.0 0.00 0.00 0.00 99 1010.2
20260901090159 66 80 0.0 0.0 0.00 0.00 0.00 99 1011.0
20260901085659 65 249 0.0 0.0 0.00 0.00 0.00 99 1010.2
20260901085159 65 247 0.0 0.0 0.00 0.00 0.00 99 1010.2
20260901084659 65 135 0.0 0.0 0.00 0.00 0.00 99 1011.0
20260901084159 65 129 0.0 0.0 0.00 0.00 0.00 99 1011.0
20260901083659 66 340 0.0 0.0 0.00 0.00 0.00 99 1011.0
20260901083159 66 276 0.0 0.0 0.00 0.00 0.00 99 1011.0
20260901082659 66 159 0.0 0.0 0.00 0.00 0.00 99 1011.0
20260901082159 66 135 0.0 0.0 0.00 0.00 0.00 99 1011.0
20260901081659 66 127 0.0 0.0 0.00 0.00 0.00 99 1011.0
20260901081159 65 135 0.0 0.0 0.00 0.00 0.00 99 1011.0
20260901080659 65 169 0.0 0.0 0.00 0.00 0.00 99 1011.0
20260901080159 65 180 0.0 0.0 0.00 0.00 0.00 99 1011.0
20260901075659 65 180 0.0 0.0 0.00 0.00 0.00 99 1011.0
20260901075201 65 180 0.0 0.0 0.00 0.00 0.00 99 1011.0
20260901074658 65 180 0.0 0.0 0.00 0.00 0.00 99 1011.0
20260901074158 65 180 0.0 0.0 0.00 0.00 0.00 99 1011.0
20260901073658 65 180 0.0 0.0 0.00 0.00 0.00 99 1011.0
20260901073158 66 180 0.0 0.0 0.00 0.00 0.00 99 1011.0
20260901072658 66 180 0.0 0.0 0.00 0.00 0.00 99 1011.0
20260901072158 66 180 0.0 0.0 0.00 0.00 0.00 99 1011.0
20260901071659 66 180 0.0 0.0 0.00 0.00 0.00 99 1011.0
20260901071158 66 180 0.0 0.0 0.00 0.00 0.00 99 1011.0
20260901070658 66 180 0.0 0.0 0.00 0.00 0.00 99 1011.0
20260901070158 66 180 0.0 0.0 0.00 0.00 0.00 99 1011.0
20260901065658 66 180 0.0 0.0 0.00 0.00 0.00 99 1011.0
20260901065158 65 180 0.0 0.0 0.00 0.00 0.00 99 1011.0
20260901064658 65 180 0.0 0.0 0.00 0.00 0.00 99 1011.0
20260901064158 65 180 0.0 0.0 0.00 0.00 0.00 99 1011.0
20260901063658 65 155 0.0 0.0 0.00 0.00 0.00 99 1011.0
20260901063158 65 94 0.0 0.0 0.00 0.00 0.00 99 1011.0
20260901062658 65 239 0.0 0.0 0.00 0.00 0.00 99 1011.0
20260901062158 65 225 0.0 0.0 0.00 0.00 0.00 99 1011.0
20260901061659 66 225 0.0 0.0 0.00 0.00 0.00 99 1011.0